P4MSP KTEX-KASE

Flight info

Callsign P4MSP
Flight time N/A
Altitude 17000
Route ETL V68 MTJ V361 DBL
Aircraft BE60/L-SDFGRY/C

Departure

Time N/A
Airport Telluride Regional Airport (KTEX)

Arrival

Time 2026-04-27 04:59
Airport Aspen-Pitkin County Airport (Sardy Field) (KASE)
Time Latitude Longitude Altitude Speed Heading
2026-04-27 04:30 38.56582 -107.83643 17080 ft 286 kts 39°
2026-04-27 04:30 38.58113 -107.82017 17077 ft 287 kts 39°
2026-04-27 04:30 38.59650 -107.80384 16960 ft 287 kts 40°
2026-04-27 04:31 38.61183 -107.78749 16951 ft 288 kts 40°
2026-04-27 04:31 38.62725 -107.77116 16955 ft 288 kts 39°
2026-04-27 04:31 38.64265 -107.75492 16949 ft 287 kts 39°
2026-04-27 04:31 38.65797 -107.73853 16968 ft 286 kts 39°
2026-04-27 04:32 38.67325 -107.72222 16976 ft 286 kts 39°
2026-04-27 04:32 38.68860 -107.70595 16976 ft 287 kts 39°
2026-04-27 04:32 38.70376 -107.68980 16978 ft 288 kts 39°
2026-04-27 04:32 38.71911 -107.67340 16979 ft 287 kts 39°
2026-04-27 04:33 38.73449 -107.65698 16979 ft 288 kts 39°
2026-04-27 04:33 38.74985 -107.64058 16981 ft 288 kts 39°
2026-04-27 04:33 38.76523 -107.62416 16980 ft 288 kts 39°
2026-04-27 04:33 38.78061 -107.60773 16978 ft 288 kts 39°
2026-04-27 04:34 38.79603 -107.59126 16986 ft 289 kts 39°
2026-04-27 04:34 38.81145 -107.57476 16987 ft 288 kts 39°
2026-04-27 04:34 38.82686 -107.55826 16985 ft 288 kts 39°
2026-04-27 04:34 38.84226 -107.54177 16988 ft 289 kts 39°
2026-04-27 04:35 38.85766 -107.52526 16986 ft 288 kts 39°
2026-04-27 04:35 38.87302 -107.50878 16987 ft 288 kts 39°
2026-04-27 04:35 38.88841 -107.49227 16984 ft 290 kts 39°
2026-04-27 04:35 38.90385 -107.47574 16983 ft 288 kts 39°
2026-04-27 04:36 38.91921 -107.45925 16979 ft 288 kts 39°
2026-04-27 04:36 38.93452 -107.44277 16993 ft 288 kts 40°
2026-04-27 04:36 38.94970 -107.42635 16983 ft 290 kts 39°
2026-04-27 04:36 38.96515 -107.40975 16982 ft 289 kts 39°
2026-04-27 04:37 38.98060 -107.39318 16967 ft 289 kts 39°
2026-04-27 04:37 38.99595 -107.37665 16970 ft 287 kts 39°
2026-04-27 04:37 39.01126 -107.36012 16965 ft 288 kts 39°
2026-04-27 04:37 39.02665 -107.34357 16976 ft 289 kts 39°
2026-04-27 04:38 39.04209 -107.32685 16983 ft 291 kts 39°
2026-04-27 04:38 39.05759 -107.31011 16999 ft 292 kts 39°
2026-04-27 04:38 39.07326 -107.29328 16923 ft 296 kts 39°
2026-04-27 04:38 39.08912 -107.27618 16798 ft 298 kts 40°
2026-04-27 04:39 39.10482 -107.25905 16801 ft 295 kts 40°
2026-04-27 04:39 39.12053 -107.24201 16799 ft 295 kts 39°
2026-04-27 04:39 39.13625 -107.22512 16779 ft 293 kts 39°
2026-04-27 04:39 39.15190 -107.20814 16782 ft 294 kts 40°
2026-04-27 04:40 39.16746 -107.19096 16791 ft 294 kts 40°
2026-04-27 04:40 39.17784 -107.17969 16785 ft 293 kts 39°
2026-04-27 04:40 39.19843 -107.15765 16806 ft 291 kts 39°
2026-04-27 04:40 39.21394 -107.14074 16792 ft 292 kts 39°
2026-04-27 04:41 39.22956 -107.12395 16796 ft 291 kts 39°
2026-04-27 04:41 39.24520 -107.10679 16530 ft 298 kts 40°
2026-04-27 04:41 39.25587 -107.09497 16403 ft 300 kts 40°
2026-04-27 04:41 39.27188 -107.07752 16256 ft 302 kts 39°
2026-04-27 04:42 39.28794 -107.06017 16119 ft 299 kts 39°
2026-04-27 04:42 39.30348 -107.04323 15986 ft 295 kts 39°
2026-04-27 04:42 39.31902 -107.02618 15887 ft 291 kts 39°
2026-04-27 04:42 39.33446 -107.00940 15811 ft 289 kts 38°
2026-04-27 04:43 39.34998 -106.99273 15575 ft 291 kts 38°
2026-04-27 04:43 39.36540 -106.97570 15410 ft 292 kts 39°
2026-04-27 04:43 39.38089 -106.95879 15200 ft 292 kts 38°
2026-04-27 04:43 39.39638 -106.94178 14985 ft 292 kts 39°
2026-04-27 04:44 39.41183 -106.92472 14736 ft 291 kts 39°
2026-04-27 04:44 39.42721 -106.90771 14568 ft 290 kts 38°
2026-04-27 04:44 39.44273 -106.89113 14379 ft 288 kts 34°
2026-04-27 04:44 39.46042 -106.88006 14093 ft 280 kts
2026-04-27 04:45 39.47941 -106.87747 13844 ft 269 kts 351°
2026-04-27 04:45 39.49789 -106.87837 13658 ft 263 kts 351°
2026-04-27 04:45 39.51585 -106.87911 13583 ft 259 kts 351°
2026-04-27 04:45 39.53359 -106.88004 13565 ft 251 kts 350°
2026-04-27 04:46 39.55078 -106.88088 13578 ft 245 kts 351°
2026-04-27 04:46 39.56765 -106.88155 13573 ft 240 kts 350°
2026-04-27 04:46 39.58419 -106.88230 13572 ft 235 kts 349°
2026-04-27 04:46 39.59963 -106.88603 13587 ft 221 kts 331°
2026-04-27 04:47 39.61323 -106.89495 13583 ft 217 kts 316°
2026-04-27 04:47 39.62424 -106.90792 13589 ft 212 kts 301°
2026-04-27 04:47 39.63212 -106.92373 13592 ft 207 kts 287°
2026-04-27 04:47 39.63653 -106.94131 13596 ft 203 kts 274°
2026-04-27 04:48 39.63742 -106.95946 13592 ft 201 kts 262°
2026-04-27 04:48 39.63486 -106.97708 13595 ft 198 kts 249°
2026-04-27 04:48 39.62802 -106.99217 13591 ft 197 kts 223°
2026-04-27 04:48 39.61552 -106.99985 13585 ft 207 kts 197°
2026-04-27 04:49 39.60084 -106.99822 13589 ft 223 kts 167°
2026-04-27 04:49 39.58673 -106.98909 13597 ft 227 kts 161°
2026-04-27 04:49 39.57270 -106.97974 13589 ft 226 kts 162°
2026-04-27 04:49 39.55859 -106.97070 13605 ft 225 kts 162°
2026-04-27 04:50 39.54472 -106.96168 13573 ft 224 kts 162°
2026-04-27 04:50 39.53085 -106.95275 13576 ft 221 kts 161°
2026-04-27 04:50 39.51740 -106.94420 13556 ft 210 kts 165°
2026-04-27 04:50 39.50445 -106.93649 13551 ft 201 kts 162°
2026-04-27 04:51 39.49233 -106.92824 13534 ft 192 kts 163°
2026-04-27 04:51 39.48044 -106.92050 13428 ft 193 kts 164°
2026-04-27 04:51 39.46862 -106.91341 13535 ft 183 kts 166°
2026-04-27 04:51 39.45707 -106.90635 13537 ft 184 kts 163°
2026-04-27 04:52 39.44579 -106.89904 13510 ft 176 kts 166°
2026-04-27 04:52 39.43482 -106.89466 13528 ft 162 kts 181°
2026-04-27 04:52 39.42301 -106.89285 13305 ft 180 kts 183°
2026-04-27 04:52 39.41007 -106.89148 13000 ft 196 kts 182°
2026-04-27 04:53 39.39599 -106.89025 12476 ft 206 kts 183°
2026-04-27 04:53 39.38169 -106.88858 12042 ft 201 kts 180°
2026-04-27 04:53 39.36877 -106.88700 11979 ft 176 kts 185°
2026-04-27 04:53 39.35757 -106.88606 11975 ft 140 kts 186°
2026-04-27 04:54 39.34841 -106.88503 11915 ft 131 kts 188°
2026-04-27 04:54 39.33907 -106.88428 11977 ft 140 kts 186°
2026-04-27 04:54 39.32875 -106.88337 11594 ft 159 kts 184°
2026-04-27 04:54 39.31786 -106.88224 11093 ft 155 kts 186°
2026-04-27 04:55 39.30710 -106.88109 10585 ft 155 kts 179°
2026-04-27 04:55 39.29636 -106.87959 10017 ft 155 kts 184°
2026-04-27 04:55 39.28621 -106.87891 10006 ft 139 kts 181°
2026-04-27 04:55 39.27677 -106.87788 9922 ft 135 kts 188°
2026-04-27 04:56 39.26776 -106.87707 10008 ft 125 kts 185°
2026-04-27 04:56 39.25865 -106.87662 9971 ft 138 kts 186°
2026-04-27 04:56 39.24915 -106.87576 9773 ft 126 kts 187°
2026-04-27 04:56 39.24128 -106.87349 9461 ft 119 kts 166°
2026-04-27 04:57 39.23360 -106.86795 9093 ft 129 kts 151°
2026-04-27 04:57 39.22629 -106.86105 8867 ft 134 kts 146°
2026-04-27 04:57 39.21882 -106.85389 8696 ft 134 kts 151°
2026-04-27 04:57 39.21094 -106.84747 8499 ft 132 kts 163°
2026-04-27 04:58 39.20309 -106.85014 8399 ft 121 kts 239°
2026-04-27 04:58 39.20446 -106.85979 8178 ft 125 kts 324°
2026-04-27 04:58 39.21263 -106.86385 7886 ft 122 kts 340°
2026-04-27 04:58 39.21964 -106.86718 7772 ft 91 kts 339°
2026-04-27 04:59 39.22438 -106.86941 7739 ft 39 kts 339°
2026-04-27 04:59 39.22543 -106.86975 7733 ft 10 kts 22°
2026-04-27 04:59 39.22575 -106.86925 7733 ft 4 kts 71°
2026-04-27 04:59 39.22574 -106.86902 7734 ft 7 kts 112°
2026-04-27 05:00 39.22525 -106.86865 7738 ft 8 kts 155°
2026-04-27 05:00 39.22501 -106.86851 7738 ft 0 kts 163°
2026-04-27 05:00 39.22465 -106.86837 7739 ft 14 kts 163°
2026-04-27 05:00 39.22406 -106.86808 7743 ft 4 kts 157°
2026-04-27 05:01 39.22387 -106.86800 7743 ft 12 kts 161°
2026-04-27 05:01 39.22329 -106.86731 7750 ft 4 kts 65°
2026-04-27 05:01 39.22331 -106.86728 7750 ft 0 kts 68°